Location: Bannatyne
(13.0833°N, 59.5333°W)
Time: 03:28:07
(UTC+00:00)

Vanguard 3 - Pass Details

Date: 28 January 2020
Orbit: 508 x 3263 km, 33.3° (Epoch: 17 February)

Event Time Altitude Azimuth Distance (km) Brightness Sun altitude
Rises 00:11:39 0° 296° (WNW) 7,226 12.6 -32.4°
Reaches altitude 10° 00:17:31 10° 304° (NW) 6,112 12.0 -33.8°
Maximum altitude 00:34:00 37° 6° (N) 3,532 10.1 -37.7°
Enters shadow 00:35:06 36° 14° (NNE) 3,470 10.0 -38.0°
Drops below altitude 10° 00:45:10 10° 69° (ENE) 4,211 - -40.4°
Sets 00:48:19 0° 79° (ENE) 4,850 - -41.1°
